Weather History for Ogallala, NE

Change the Weather History Date:

Sunday, March 31, 2013

  Actual Average Record
Temperature  
Mean Temperature 48 °F -  
Max Temperature 70 °F 56 °F 85 °F (1968)
Min Temperature 28 °F 27 °F 3 °F (1954)
Degree Days  
Heating Degree Days 16    
Moisture  
Dew Point 29 °F    
Average Humidity 57    
Maximum Humidity 94    
Minimum Humidity 14    
Precipitation  
Precipitation 0.00 in - - ()
Sea Level Pressure  
Sea Level Pressure 30.03 in    
Wind  
Wind Speed 9 mph (West)    
Max Wind Speed 24 mph    
Max Gust Speed 32 mph    
Visibility 10 miles    
Events      
Averages and records for this station are not official NWS values.
T = Trace of Precipitation, MM = Missing Value Source: NWS Daily Summary

Daily Weather History Graph

Daily Weather History Graph

Search for Another Location

Airport:

Trip Planner

Search our weather history database for the weather conditions in past years. The results will help you decide how hot, cold, wet, or windy it might be!

Date:

Astronomy

Mar. 31, 2013 Rise Set
Actual Time 6:31 AM MDT 7:11 PM MDT
Civil Twilight 6:03 AM MDT 7:39 PM MDT
Nautical Twilight 5:31 AM MDT 8:12 PM MDT
Astronomical Twilight 4:57 AM MDT 8:46 PM MDT
Moon No Moon Rise 9:18 AM MDT (3/31)
Length of Visible Light 13h 35m
Length of Day
12h 39m
Waning Gibbous, 77% of the Moon is Illuminated
Mar 31
Waning Gibbous
Apr 2
Last Quarter
Apr 10
New
Apr 18
First Quarter
Apr 25
Full

Hourly Weather History & Observations

Time (MDT) Temp. Windchill Dew Point Humidity Pressure Visibility Wind Dir Wind Speed Gust Speed Precip Events Conditions
12:15 AM 36.5 °F 30.3 °F 33.8 °F 90% 30.13 in 10.0 mi WSW 8.1 mph - N/A   Clear
12:35 AM 36.0 °F 29.6 °F 33.1 °F 89% 30.13 in 10.0 mi West 8.1 mph - N/A   Clear
12:55 AM 36.7 °F 32.0 °F 33.3 °F 87% 30.13 in 10.0 mi West 5.8 mph - N/A   Clear
1:15 AM 37.2 °F 31.2 °F 33.8 °F 87% 30.13 in 10.0 mi NW 8.1 mph - N/A   Clear
1:35 AM 36.5 °F 31.0 °F 33.1 °F 87% 30.13 in 10.0 mi WSW 6.9 mph - N/A   Clear
1:55 AM 37.8 °F 35.3 °F 34.2 °F 87% 30.12 in 10.0 mi WSW 3.5 mph - N/A   Clear
2:15 AM 38.5 °F 32.7 °F 34.2 °F 84% 30.12 in 10.0 mi WSW 8.1 mph - N/A   Clear
2:35 AM 36.7 °F 29.9 °F 33.1 °F 87% 30.11 in 10.0 mi WSW 9.2 mph - N/A   Clear
2:55 AM 36.3 °F 32.5 °F 33.1 °F 88% 30.11 in 10.0 mi West 4.6 mph - N/A   Clear
3:15 AM 34.7 °F 28.1 °F 32.4 °F 91% 30.11 in 10.0 mi West 8.1 mph - N/A   Clear
3:35 AM 35.6 °F 29.2 °F 32.5 °F 89% 30.11 in 10.0 mi WSW 8.1 mph - N/A   Clear
3:55 AM 36.1 °F 29.9 °F 32.7 °F 87% 30.10 in 10.0 mi WSW 8.1 mph - N/A   Clear
4:15 AM 37.6 °F 35.1 °F 33.4 °F 85% 30.09 in 10.0 mi West 3.5 mph - N/A   Clear
4:35 AM 36.0 °F 32.1 °F 32.5 °F 87% 30.09 in 10.0 mi West 4.6 mph - N/A   Clear
4:55 AM 37.8 °F 33.3 °F 33.1 °F 83% 30.09 in 10.0 mi West 5.8 mph - N/A   Clear
5:15 AM 34.2 °F 28.2 °F 30.7 °F 87% 30.09 in 10.0 mi West 6.9 mph - N/A   Clear
5:35 AM 31.6 °F 23.7 °F 29.5 °F 92% 30.09 in 10.0 mi West 9.2 mph - N/A   Clear
5:55 AM 30.2 °F 22.6 °F 28.4 °F 93% 30.09 in 10.0 mi West 8.1 mph - N/A   Clear
6:15 AM 30.0 °F 23.2 °F 28.2 °F 93% 30.09 in 10.0 mi West 6.9 mph - N/A   Clear
6:35 AM 28.9 °F 22.8 °F 27.1 °F 93% 30.09 in 10.0 mi West 5.8 mph - N/A   Clear
6:55 AM 29.3 °F 22.3 °F 27.5 °F 93% 30.09 in 10.0 mi West 6.9 mph - N/A   Clear
7:15 AM 30.2 °F 25.4 °F 28.4 °F 93% 30.09 in 10.0 mi WSW 4.6 mph - N/A   Clear
7:35 AM 32.2 °F 27.7 °F 30.6 °F 94% 30.10 in 10.0 mi WSW 4.6 mph - N/A   Clear
7:55 AM 34.2 °F 30.0 °F 31.8 °F 91% 30.09 in 10.0 mi WSW 4.6 mph - N/A   Clear
8:15 AM 36.5 °F 31.8 °F 32.5 °F 86% 30.09 in 10.0 mi WSW 5.8 mph - N/A   Clear
8:35 AM 38.7 °F 36.3 °F 34.2 °F 84% 30.07 in 10.0 mi SW 3.5 mph - N/A   Clear
8:55 AM 41.0 °F 39.0 °F 34.5 °F 78% 30.07 in 10.0 mi WSW 3.5 mph - N/A   Clear
9:15 AM 43.0 °F 41.3 °F 35.6 °F 75% 30.06 in 10.0 mi West 3.5 mph - N/A   Clear
9:35 AM 45.3 °F - 34.9 °F 67% 30.05 in 10.0 mi Calm Calm - N/A   Clear
9:55 AM 48.2 °F - 35.4 °F 61% 30.05 in 10.0 mi WSW 3.5 mph - N/A   Clear
10:15 AM 50.2 °F - 36.0 °F 58% 30.04 in 10.0 mi West 5.8 mph - N/A   Clear
10:35 AM 51.6 °F - 36.0 °F 55% 30.02 in 10.0 mi SW 9.2 mph - N/A   Clear
10:55 AM 54.3 °F - 35.4 °F 49% 30.02 in 10.0 mi SSW 8.1 mph - N/A   Clear
11:15 AM 57.2 °F - 33.4 °F 41% 30.01 in 10.0 mi WSW 12.7 mph 23.0 mph N/A   Clear
11:35 AM 59.5 °F - 33.8 °F 38% 30.00 in 10.0 mi WSW 13.8 mph 18.4 mph N/A   Clear
11:55 AM 60.6 °F - 32.7 °F 35% 30.00 in 10.0 mi West 12.7 mph 23.0 mph N/A   Clear
12:15 PM 61.2 °F - 33.6 °F 36% 29.98 in 10.0 mi SW 12.7 mph 20.7 mph N/A   Clear
12:35 PM 63.3 °F - 33.8 °F 33% 29.98 in 10.0 mi SW 10.4 mph 21.9 mph N/A   Clear
12:55 PM 64.4 °F - 32.5 °F 30% 29.96 in 10.0 mi West 12.7 mph 26.5 mph N/A   Clear
1:15 PM 65.3 °F - 31.8 °F 29% 29.95 in 10.0 mi WSW 11.5 mph 24.2 mph N/A   Clear
1:35 PM 66.6 °F - 31.1 °F 27% 29.93 in 10.0 mi West 13.8 mph 19.6 mph N/A   Clear
1:55 PM 67.6 °F - 30.6 °F 25% 29.93 in 10.0 mi WSW 16.1 mph 23.0 mph N/A   Scattered Clouds
2:15 PM 68.7 °F - 31.1 °F 25% 29.91 in 10.0 mi West 11.5 mph 25.3 mph N/A   Mostly Cloudy
2:35 PM 69.8 °F - 30.6 °F 23% 29.89 in 10.0 mi WSW 13.8 mph 25.3 mph N/A   Mostly Cloudy
2:55 PM 68.5 °F - 25.3 °F 20% 29.89 in 10.0 mi NW 23.0 mph 26.5 mph N/A   Scattered Clouds
3:15 PM 69.8 °F - 21.0 °F 16% 29.88 in 10.0 mi NW 20.7 mph 31.1 mph N/A   Clear
3:35 PM 69.8 °F - 18.9 °F 14% 29.89 in 10.0 mi NW 18.4 mph 26.5 mph N/A   Clear
3:55 PM 69.8 °F - 18.7 °F 14% 29.89 in 10.0 mi NW 17.3 mph 29.9 mph N/A   Clear
4:15 PM 69.3 °F - 19.6 °F 15% 29.88 in 10.0 mi NW 13.8 mph 29.9 mph N/A   Clear
4:35 PM 69.3 °F - 20.5 °F 16% 29.88 in 10.0 mi NNW 19.6 mph 24.2 mph N/A   Clear
4:55 PM 69.1 °F - 20.3 °F 16% 29.88 in 10.0 mi NNW 15.0 mph 26.5 mph N/A   Clear
5:15 PM 68.9 °F - 22.3 °F 17% 29.88 in 10.0 mi NW 16.1 mph 20.7 mph N/A   Clear
5:35 PM 68.4 °F - 22.5 °F 18% 29.89 in 10.0 mi North 17.3 mph 25.3 mph N/A   Clear
5:55 PM 67.3 °F - 22.6 °F 18% 29.90 in 10.0 mi NNW 15.0 mph 19.6 mph N/A   Clear
6:15 PM 65.3 °F - 23.2 °F 20% 29.91 in 10.0 mi North 11.5 mph - N/A   Scattered Clouds
6:35 PM 63.0 °F - 25.5 °F 24% 29.91 in 10.0 mi North 13.8 mph - N/A   Scattered Clouds
6:55 PM 61.0 °F - 27.1 °F 28% 29.93 in 10.0 mi NNE 23.0 mph - N/A   Clear
7:15 PM 57.4 °F - 30.6 °F 36% 29.94 in 10.0 mi NE 23.0 mph 28.8 mph N/A   Clear
7:35 PM 53.8 °F - 31.5 °F 43% 29.95 in 10.0 mi NE 24.2 mph 28.8 mph N/A   Clear
8:15 PM 48.2 °F - 28.2 °F 46% 30.00 in 10.0 mi NE 23.0 mph 32.2 mph N/A   Clear
8:35 PM 46.2 °F 38.3 °F 26.6 °F 46% 30.03 in 10.0 mi NE 21.9 mph 27.6 mph N/A   Clear
9:15 PM 43.3 °F 35.8 °F 23.0 °F 45% 30.07 in 10.0 mi ENE 16.1 mph 24.2 mph N/A   Clear
9:35 PM 41.9 °F 34.6 °F 22.3 °F 46% 30.09 in 10.0 mi ENE 13.8 mph - N/A   Clear
10:15 PM 39.6 °F 29.7 °F 22.1 °F 50% 30.12 in 10.0 mi ENE 20.7 mph - N/A   Clear
10:35 PM 38.7 °F 29.8 °F 22.8 °F 53% 30.13 in 10.0 mi ENE 16.1 mph - N/A   Clear
10:55 PM 37.6 °F 28.1 °F 23.0 °F 56% 30.14 in 10.0 mi NE 17.3 mph - N/A   Clear
11:15 PM 37.0 °F 29.3 °F 23.0 °F 57% 30.15 in 10.0 mi ENE 11.5 mph - N/A   Clear
11:35 PM 36.5 °F 29.2 °F 23.5 °F 59% 30.15 in 10.0 mi ENE 10.4 mph - N/A   Clear
11:55 PM 36.3 °F 28.9 °F 23.5 °F 60% 30.16 in 10.0 mi ENE 10.4 mph - N/A   Clear